| time (UTC) | temp C | wind direction | speed KPH | gust KPH | rain 1hr cm | rain 24hr cm | rain mn cm | humidity % | barometer mb |
| 20260509031508 | 10 | 176 | 0.0 | 0.0 | 0.00 | 0.00 | 0.00 | 63 | 1015.2 |
| 20260509030007 | 10 | 176 | 0.0 | 0.0 | 0.00 | 0.00 | 0.00 | 64 | 1015.4 |
| 20260509024507 | 10 | 176 | 0.0 | 0.0 | 0.00 | 0.00 | 0.00 | 65 | 1015.2 |
| 20260509023002 | 11 | 176 | 0.0 | 0.0 | 0.00 | 0.00 | 0.00 | 66 | 1015.2 |
| 20260509021502 | 11 | 176 | 0.0 | 0.0 | 0.00 | 0.00 | 0.00 | 67 | 1015.1 |
| 20260509020005 | 11 | 176 | 0.0 | 0.0 | 0.00 | 0.00 | 0.00 | 67 | 1015.3 |
| 20260509014500 | 11 | 176 | 0.0 | 0.0 | 0.00 | 0.00 | 0.00 | 68 | 1015.1 |
| 20260509013003 | 11 | 176 | 0.0 | 0.0 | 0.00 | 0.00 | 0.00 | 70 | 1014.9 |
| 20260509011502 | 11 | 176 | 0.0 | 0.0 | 0.00 | 0.00 | 0.00 | 72 | 1014.6 |
| 20260509010000 | 11 | 176 | 0.0 | 0.0 | 0.00 | 0.00 | 0.00 | 73 | 1014.6 |
| 20260509004600 | 12 | 201 | 0.0 | 0.0 | 0.00 | 0.00 | 0.00 | 74 | 1014.5 |
| 20260509001559 | 12 | 304 | 0.0 | 0.0 | 0.00 | 0.00 | 0.00 | 74 | 1014.5 |
| 20260509000120 | 12 | 279 | 0.0 | 0.0 | 0.00 | 0.00 | 0.00 | 74 | 1014.2 |
| 20260508234559 | 13 | 107 | 0.0 | 0.0 | 0.00 | 0.00 | 0.00 | 74 | 1014.1 |
| 20260508231558 | 13 | 143 | 0.0 | 0.0 | 0.00 | 0.00 | 0.00 | 73 | 1014.1 |
| 20260508230100 | 13 | 245 | 0.0 | 3.2 | 0.00 | 0.00 | 0.00 | 72 | 1014.1 |
| 20260508224557 | 14 | 58 | 0.0 | 4.8 | 0.00 | 0.00 | 0.00 | 71 | 1013.9 |
| 20260508221557 | 15 | 317 | 0.0 | 6.4 | 0.00 | 0.00 | 0.00 | 68 | 1014.1 |
| 20260508220056 | 15 | 113 | 0.0 | 3.2 | 0.00 | 0.00 | 0.00 | 67 | 1013.9 |
| 20260508214556 | 15 | 319 | 0.0 | 4.8 | 0.00 | 0.00 | 0.00 | 66 | 1013.8 |
| 20260508211557 | 15 | 290 | 0.0 | 4.8 | 0.00 | 0.00 | 0.00 | 63 | 1013.8 |
| 20260508210055 | 15 | 293 | 1.6 | 4.8 | 0.00 | 0.00 | 0.00 | 62 | 1013.7 |
| 20260508204557 | 16 | 264 | 1.6 | 9.7 | 0.00 | 0.00 | 0.00 | 63 | 1013.6 |
| 20260508203002 | 16 | 292 | 0.0 | 6.4 | 0.00 | 0.00 | 0.00 | 62 | 1013.6 |
| 20260508201600 | 16 | 262 | 0.0 | 0.0 | 0.00 | 0.00 | 0.00 | 61 | 1013.9 |
| 20260508200112 | 16 | 293 | 0.0 | 4.8 | 0.00 | 0.00 | 0.00 | 60 | 1014.0 |
| 20260508194602 | 16 | 152 | 1.6 | 6.4 | 0.00 | 0.00 | 0.00 | 60 | 1014.2 |
| 20260508191552 | 16 | 181 | 3.2 | 14.5 | 0.00 | 0.00 | 0.00 | 59 | 1014.7 |
| 20260508190053 | 16 | 150 | 0.0 | 9.7 | 0.00 | 0.00 | 0.00 | 61 | 1014.8 |
| 20260508184554 | 15 | 150 | 0.0 | 8.0 | 0.00 | 0.00 | 0.00 | 64 | 1015.1 |
| 20260508181603 | 15 | 280 | 0.0 | 6.4 | 0.00 | 0.00 | 0.00 | 61 | 1015.5 |
| 20260508180048 | 16 | 203 | 1.6 | 11.3 | 0.00 | 0.00 | 0.00 | 61 | 1015.7 |
| 20260508174552 | 16 | 139 | 3.2 | 17.7 | 0.00 | 0.00 | 0.00 | 60 | 1015.6 |
| 20260508171547 | 15 | 154 | 1.6 | 16.1 | 0.00 | 0.00 | 0.00 | 60 | 1016.1 |
| 20260508170053 | 16 | 307 | 6.4 | 17.7 | 0.00 | 0.00 | 0.00 | 56 | 1016.1 |
| 20260508164547 | 16 | 281 | 0.0 | 8.0 | 0.00 | 0.00 | 0.00 | 59 | 1016.5 |
| 20260508161541 | 15 | 221 | 1.6 | 4.8 | 0.00 | 0.00 | 0.00 | 57 | 1016.9 |
| 20260508160040 | 15 | 343 | 0.0 | 8.0 | 0.00 | 0.00 | 0.00 | 60 | 1016.8 |
| 20260508154602 | 15 | 282 | 0.0 | 12.9 | 0.00 | 0.00 | 0.00 | 60 | 1017.1 |
| 20260508151541 | 15 | 293 | 0.0 | 8.0 | 0.00 | 0.00 | 0.00 | 62 | 1017.1 |
| 20260508150041 | 15 | 291 | 0.0 | 0.0 | 0.00 | 0.00 | 0.00 | 59 | 1017.2 |
| 20260508144547 | 15 | 323 | 0.0 | 1.6 | 0.00 | 0.00 | 0.00 | 62 | 1017.2 |
| 20260508141536 | 15 | 250 | 0.0 | 8.0 | 0.00 | 0.00 | 0.00 | 62 | 1017.2 |
| 20260508140037 | 15 | 123 | 0.0 | 3.2 | 0.00 | 0.00 | 0.00 | 58 | 1017.4 |
| 20260508134548 | 15 | 337 | 0.0 | 0.0 | 0.00 | 0.00 | 0.00 | 57 | 1017.5 |
| 20260508131529 | 12 | 12 | 0.0 | 1.6 | 0.00 | 0.00 | 0.00 | 60 | 1017.5 |
| 20260508130029 | 12 | 353 | 0.0 | 1.6 | 0.00 | 0.00 | 0.00 | 61 | 1017.3 |
| 20260508124530 | 12 | 335 | 0.0 | 1.6 | 0.00 | 0.00 | 0.00 | 66 | 1017.2 |
| 20260508121528 | 11 | 350 | 0.0 | 1.6 | 0.00 | 0.00 | 0.00 | 69 | 1017.0 |
| 20260508120017 | 11 | 49 | 0.0 | 0.0 | 0.00 | 0.00 | 0.00 | 75 | 1016.8 |
| 20260508114513 | 9 | 50 | 0.0 | 0.0 | 0.00 | 0.00 | 0.00 | 76 | 1016.7 |
| 20260508111510 | 5 | 119 | 0.0 | 1.6 | 0.00 | 0.00 | 0.00 | 64 | 1016.1 |
| 20260508110008 | 5 | 321 | 0.0 | 0.0 | 0.00 | 0.00 | 0.00 | 64 | 1015.7 |
| 20260508104508 | 4 | 321 | 0.0 | 0.0 | 0.00 | 0.00 | 0.00 | 64 | 1015.7 |
| 20260508101601 | 5 | 321 | 0.0 | 0.0 | 0.00 | 0.00 | 0.00 | 63 | 1015.2 |
| 20260508100111 | 5 | 321 | 0.0 | 0.0 | 0.00 | 0.00 | 0.00 | 64 | 1015.0 |
| 20260508094604 | 5 | 321 | 0.0 | 0.0 | 0.00 | 0.00 | 0.00 | 64 | 1014.7 |
| 20260508091602 | 6 | 321 | 0.0 | 0.0 | 0.00 | 0.00 | 0.00 | 65 | 1014.4 |
| 20260508090109 | 6 | 338 | 0.0 | 1.6 | 0.00 | 0.00 | 0.00 | 64 | 1014.4 |
| 20260508084549 | 6 | 32 | 0.0 | 0.0 | 0.00 | 0.00 | 0.00 | 64 | 1014.2 |
| 20260508081600 | 6 | 30 | 0.0 | 0.0 | 0.00 | 0.00 | 0.00 | 64 | 1014.0 |
| 20260508080043 | 6 | 30 | 0.0 | 0.0 | 0.00 | 0.00 | 0.00 | 65 | 1013.9 |
| 20260508074545 | 7 | 30 | 0.0 | 0.0 | 0.00 | 0.00 | 0.00 | 66 | 1013.7 |
| 20260508071540 | 7 | 20 | 0.0 | 1.6 | 0.00 | 0.00 | 0.00 | 73 | 1013.5 |
| 20260508070045 | 7 | 7 | 0.0 | 1.6 | 0.00 | 0.00 | 0.00 | 73 | 1013.5 |
| 20260508064538 | 7 | 92 | 0.0 | 0.0 | 0.00 | 0.00 | 0.00 | 74 | 1013.4 |
| 20260508061541 | 7 | 149 | 0.0 | 0.0 | 0.00 | 0.00 | 0.00 | 72 | 1013.2 |
| 20260508060049 | 7 | 114 | 0.0 | 0.0 | 0.00 | 0.00 | 0.00 | 70 | 1013.3 |
| 20260508054537 | 7 | 80 | 0.0 | 1.6 | 0.00 | 0.00 | 0.00 | 66 | 1013.4 |
| 20260508051540 | 7 | 96 | 0.0 | 0.0 | 0.00 | 0.00 | 0.00 | 68 | 1013.5 |
| 20260508050033 | 7 | 96 | 0.0 | 0.0 | 0.00 | 0.00 | 0.00 | 72 | 1013.3 |
| 20260508044530 | 8 | 96 | 0.0 | 0.0 | 0.00 | 0.00 | 0.00 | 74 | 1013.2 |
| 20260508041527 | 8 | 25 | 0.0 | 3.2 | 0.00 | 0.00 | 0.00 | 72 | 1013.0 |
| 20260508040027 | 8 | 335 | 0.0 | 1.6 | 0.00 | 0.00 | 0.00 | 68 | 1013.1 |
| 20260508034537 | 8 | 67 | 0.0 | 1.6 | 0.00 | 0.00 | 0.00 | 68 | 1013.1 |